CZ-3B R/B (43247 NORAD) Tracking and Keplerian Element Data

This shows tracking and keplerian element data for the satellite.

Feedback or suggestion? Click here.




ElementValue
Catalog43247
NameCZ-3B R/B
Epoch Orbit128
Epoch Day117.72863536
Epoch Year2018
RAAN27.0409
Inclination54.9956
Eccentricity0.5788961
Argument of Perigee179.4376
Mean Anonmoly181.853
Mean Motion4.44449427
Decay Rate0.00027479
L11 43247U 18029C 18117.72863536 .00027479 00000-0 83303-3 0 9997
L22 43247 54.9956 27.0409 5788961 179.4376 181.8530 4.44449427 1282

Live tracking and technical data element details for CZ-3B R/B (NORAD 43247). CZ-3B R/B can be tracked NOW for your location showing map with azimuth and elevation plus other details from your city location.

Track the satellite on the map from your city or location and see movement details for azimuth, elevation, latitude, longitude, range, height, and movement on the map or in text.







IsCatalogInMostPopularTable: catalog: 43247, numindb: 60
Update: records affected: 1



GetName: 43247 CZ-3B R/B

Hit Count: updated at: Tue, 20 Nov 2018 12:05:27 GMT